Location: East Guldeford
(50.9500°N, 0.7500°E)
Time: 07:50:16
(UTC+00:00)

USA 307 - Pass Details

Date: 12 May 2021
Orbit: 566 x 577 km, 54.0° (Epoch: 10 May)

Event Time Altitude Azimuth Distance (km) Brightness Sun altitude
Rises 21:07:56 0° 293° (WNW) 2,777 7.6 -11.8°
Reaches altitude 10° 21:10:13 10° 288° (WNW) 1,879 6.5 -12.0°
Maximum altitude 21:14:22 51° 213° (SSW) 726 3.3 -12.4°
Enters shadow 21:17:05 20° 144° (SE) 1,350 4.1 -12.7°
